{"data":{"norad_id":69164,"epoch":"2026-09-19T19:31:04.343808Z","epoch_age_seconds":86302,"freshness":"FRESH","line1":"1 69164U 26111S   26262.81324472  .00030396  00000+0  90727-3 0  9994","line2":"2 69164  53.1585  68.9128 0001026  83.4238 276.6881 15.34393914 18791","mean_motion":15.34393914,"eccentricity":0.0001026,"inclination_deg":53.1585,"raan_deg":68.9128,"arg_perigee_deg":83.4238,"mean_anomaly_deg":276.6881,"bstar":0.00090727,"rev_number":1879,"period_min":93.848130317858,"perigee_km":462.01945707689,"apogee_km":463.42320120603,"semimajor_km":6840.8583291415,"source":"CELESTRAK","updated_at":"2026-09-20T09:00:44.092597Z"}}